Tracking 29892 objects as of 21-Nov-2024
HD Live streaming from Space Station
objects crossing your sky now

ARIANE 5 R/B

Track ARIANE 5 R/B now!


NORAD ID: 28886
Int'l Code: 2005-041C
Perigee: 588.5 km
Apogee: 35,959.2 km
Inclination: 8.1 °
Period: 641.7 minutes
Semi major axis: 24644 km
RCS: 27.5905 m2 (large)
Launch date: October 13, 2005
Source: France (FR)
Launch site: FRENCH GUIANA (FRGUI)

Note: This is a ROCKET BODY
Your satellite tracking list
Your tracking list is empty




NASA's NSSDC Master Catalog

Two Line Element Set (TLE):
1 28886U 05041C   24325.83658950 -.00000116  00000-0  50082-3 0  9999
2 28886   8.1359  54.5627 7176083 311.6921 348.0072  2.24395148156660
Source of the keplerian elements: AFSPC